CTV978 WIII-WIMM

Flight info

Callsign CTV978
Flight time 1h 51m
Altitude 38000
Route GOMEL T10 AKPER
Aircraft A20N/M-SDE2E3FGHIRWXY/LB1

Departure

Time 2026-05-08 09:56
Airport Soekarno-Hatta International Airport (WIII)

Arrival

Time 2026-05-08 11:48
Airport Kualanamu International Airport (WIMM)
Time Latitude Longitude Altitude Speed Heading
2026-05-08 09:22 -6.13226 106.65162 38 ft 0 kts 28°
2026-05-08 09:45 -6.13229 106.65160 37 ft 2 kts 28°
2026-05-08 09:46 -6.13244 106.65152 36 ft 2 kts 32°
2026-05-08 09:46 -6.13256 106.65142 37 ft 2 kts 49°
2026-05-08 09:46 -6.13266 106.65129 34 ft 2 kts 75°
2026-05-08 09:46 -6.13266 106.65113 37 ft 2 kts 115°
2026-05-08 09:47 -6.13257 106.65099 35 ft 2 kts 142°
2026-05-08 09:47 -6.13244 106.65090 33 ft 2 kts 148°
2026-05-08 09:47 -6.13230 106.65082 35 ft 2 kts 157°
2026-05-08 09:47 -6.13224 106.65080 35 ft 0 kts 158°
2026-05-08 09:50 -6.13226 106.65081 35 ft 2 kts 158°
2026-05-08 09:50 -6.13249 106.65093 33 ft 6 kts 146°
2026-05-08 09:50 -6.13287 106.65132 34 ft 10 kts 128°
2026-05-08 09:51 -6.13336 106.65191 37 ft 13 kts 136°
2026-05-08 09:51 -6.13416 106.65227 37 ft 13 kts 159°
2026-05-08 09:51 -6.13506 106.65264 37 ft 14 kts 158°
2026-05-08 09:51 -6.13605 106.65305 36 ft 17 kts 158°
2026-05-08 09:52 -6.13696 106.65279 41 ft 16 kts 245°
2026-05-08 09:52 -6.13738 106.65173 40 ft 17 kts 248°
2026-05-08 09:52 -6.13784 106.65062 41 ft 18 kts 247°
2026-05-08 09:52 -6.13831 106.64939 39 ft 20 kts 249°
2026-05-08 09:53 -6.13885 106.64804 40 ft 20 kts 248°
2026-05-08 09:53 -6.13937 106.64676 42 ft 20 kts 249°
2026-05-08 09:53 -6.13986 106.64553 41 ft 19 kts 248°
2026-05-08 09:53 -6.14039 106.64422 40 ft 21 kts 248°
2026-05-08 09:54 -6.14094 106.64309 44 ft 15 kts 218°
2026-05-08 09:54 -6.14115 106.64300 44 ft 0 kts 192°
2026-05-08 09:55 -6.14122 106.64299 45 ft 3 kts 187°
2026-05-08 09:55 -6.14163 106.64306 45 ft 9 kts 156°
2026-05-08 09:55 -6.14209 106.64371 44 ft 14 kts 101°
2026-05-08 09:55 -6.14209 106.64489 41 ft 21 kts 72°
2026-05-08 09:56 -6.14077 106.64813 39 ft 84 kts 67°
2026-05-08 09:56 -6.13785 106.65543 36 ft 138 kts 68°
2026-05-08 09:56 -6.13365 106.66502 351 ft 156 kts 62°
2026-05-08 09:56 -6.12929 106.67536 870 ft 162 kts 63°
2026-05-08 09:57 -6.12128 106.69639 1922 ft 172 kts 66°
2026-05-08 09:57 -6.11662 106.70806 2389 ft 187 kts 62°
2026-05-08 09:57 -6.10733 106.71803 2763 ft 212 kts 27°
2026-05-08 09:58 -6.09220 106.72109 3217 ft 238 kts 354°
2026-05-08 09:58 -6.07622 106.71521 3721 ft 262 kts 324°
2026-05-08 09:58 -6.06135 106.70348 4391 ft 278 kts 320°
2026-05-08 09:58 -6.04610 106.69111 5346 ft 281 kts 320°
2026-05-08 09:59 -6.03085 106.67857 6289 ft 289 kts 320°
2026-05-08 09:59 -6.01570 106.66520 7171 ft 291 kts 310°
2026-05-08 09:59 -6.00367 106.64882 8129 ft 293 kts 304°
2026-05-08 09:59 -5.99196 106.63185 8985 ft 298 kts 304°
2026-05-08 10:00 -5.97996 106.61444 9741 ft 307 kts 304°
2026-05-08 10:00 -5.96766 106.59673 10479 ft 315 kts 304°
2026-05-08 10:00 -5.95463 106.57805 10820 ft 337 kts 304°
2026-05-08 10:00 -5.94072 106.55819 11164 ft 356 kts 304°
2026-05-08 10:01 -5.92619 106.53750 11767 ft 364 kts 304°
2026-05-08 10:01 -5.91150 106.51662 12502 ft 370 kts 305°
2026-05-08 10:01 -5.89652 106.49530 13201 ft 375 kts 305°
2026-05-08 10:01 -5.88140 106.47379 13922 ft 379 kts 305°
2026-05-08 10:02 -5.86609 106.45202 14595 ft 382 kts 305°
2026-05-08 10:02 -5.85072 106.43017 15291 ft 384 kts 305°
2026-05-08 10:02 -5.83522 106.40813 15909 ft 389 kts 305°
2026-05-08 10:02 -5.81961 106.38593 16603 ft 390 kts 305°
2026-05-08 10:03 -5.80385 106.36352 17169 ft 395 kts 304°
2026-05-08 10:03 -5.78789 106.34082 17752 ft 400 kts 304°
2026-05-08 10:03 -5.77175 106.31787 18295 ft 404 kts 304°
2026-05-08 10:03 -5.75547 106.29474 18836 ft 406 kts 305°
2026-05-08 10:04 -5.73754 106.27267 19383 ft 408 kts 313°
2026-05-08 10:04 -5.71671 106.25309 19885 ft 411 kts 321°
2026-05-08 10:04 -5.69418 106.23529 20400 ft 414 kts 322°
2026-05-08 10:04 -5.67150 106.21729 20934 ft 417 kts 322°
2026-05-08 10:05 -5.64868 106.19910 21398 ft 421 kts 322°
2026-05-08 10:05 -5.62575 106.18080 21995 ft 421 kts 322°
2026-05-08 10:05 -5.60300 106.16264 22496 ft 423 kts 322°
2026-05-08 10:05 -5.57992 106.14423 23051 ft 425 kts 322°
2026-05-08 10:06 -5.55663 106.12565 23466 ft 429 kts 322°
2026-05-08 10:06 -5.53319 106.10695 23880 ft 431 kts 322°
2026-05-08 10:06 -5.50964 106.08817 24261 ft 434 kts 322°
2026-05-08 10:06 -5.48592 106.06927 24672 ft 436 kts 322°
2026-05-08 10:07 -5.46207 106.05026 25038 ft 439 kts 322°
2026-05-08 10:07 -5.43808 106.03115 25417 ft 442 kts 322°
2026-05-08 10:07 -5.41391 106.01189 25776 ft 445 kts 322°
2026-05-08 10:07 -5.38959 105.99254 26134 ft 447 kts 323°
2026-05-08 10:08 -5.36513 105.97308 26473 ft 450 kts 323°
2026-05-08 10:08 -5.34047 105.95348 26819 ft 452 kts 323°
2026-05-08 10:08 -5.31575 105.93384 27173 ft 455 kts 323°
2026-05-08 10:08 -5.29117 105.91430 27494 ft 457 kts 323°
2026-05-08 10:09 -5.26617 105.89442 27815 ft 460 kts 323°
2026-05-08 10:09 -5.24102 105.87443 28106 ft 463 kts 323°
2026-05-08 10:09 -5.21576 105.85436 28462 ft 464 kts 323°
2026-05-08 10:09 -5.19033 105.83418 28757 ft 466 kts 323°
2026-05-08 10:10 -5.16391 105.81505 29079 ft 468 kts 326°
2026-05-08 10:10 -5.13725 105.79614 29354 ft 471 kts 326°
2026-05-08 10:10 -5.11047 105.77710 29628 ft 473 kts 326°
2026-05-08 10:10 -5.08356 105.75796 29915 ft 475 kts 326°
2026-05-08 10:11 -5.05649 105.73870 30188 ft 477 kts 326°
2026-05-08 10:11 -5.02941 105.71944 30497 ft 478 kts 326°
2026-05-08 10:11 -5.00228 105.70014 30790 ft 479 kts 326°
2026-05-08 10:11 -4.97510 105.68081 31121 ft 479 kts 326°
2026-05-08 10:12 -4.94794 105.66150 31533 ft 477 kts 326°
2026-05-08 10:12 -4.92093 105.64230 31954 ft 474 kts 326°
2026-05-08 10:12 -4.89408 105.62320 32313 ft 473 kts 327°
2026-05-08 10:12 -4.86717 105.60407 32672 ft 472 kts 327°
2026-05-08 10:13 -4.84037 105.58503 33058 ft 470 kts 327°
2026-05-08 10:13 -4.81398 105.56628 33424 ft 469 kts 327°
2026-05-08 10:13 -4.78744 105.54742 33782 ft 467 kts 327°
2026-05-08 10:13 -4.76099 105.52863 34098 ft 465 kts 327°
2026-05-08 10:14 -4.73467 105.50994 34439 ft 462 kts 327°
2026-05-08 10:14 -4.70845 105.49132 34725 ft 461 kts 327°
2026-05-08 10:14 -4.68228 105.47273 34999 ft 460 kts 327°
2026-05-08 10:14 -4.65616 105.45418 35280 ft 459 kts 327°
2026-05-08 10:15 -4.63012 105.43569 35561 ft 458 kts 327°
2026-05-08 10:15 -4.60412 105.41722 35847 ft 457 kts 327°
2026-05-08 10:15 -4.57818 105.39880 36133 ft 456 kts 327°
2026-05-08 10:15 -4.55231 105.38044 36428 ft 455 kts 327°
2026-05-08 10:16 -4.52652 105.36213 36715 ft 454 kts 327°
2026-05-08 10:16 -4.50076 105.34385 36994 ft 453 kts 327°
2026-05-08 10:16 -4.47508 105.32562 37275 ft 452 kts 327°
2026-05-08 10:16 -4.44945 105.30743 37547 ft 451 kts 327°
2026-05-08 10:17 -4.42383 105.28925 37781 ft 450 kts 327°
2026-05-08 10:17 -4.39823 105.27110 37817 ft 451 kts 327°
2026-05-08 10:17 -4.34716 105.23486 37815 ft 449 kts 327°
2026-05-08 10:18 -4.29613 105.19867 37812 ft 449 kts 327°
2026-05-08 10:18 -4.24507 105.16245 37815 ft 449 kts 327°
2026-05-08 10:19 -4.19438 105.12651 37812 ft 449 kts 327°
2026-05-08 10:20 -4.11782 105.07222 37813 ft 449 kts 327°
2026-05-08 10:20 -4.06993 105.03169 37812 ft 452 kts 319°
2026-05-08 10:21 -4.02390 104.98847 37815 ft 456 kts 319°
2026-05-08 10:21 -3.97710 104.94471 37815 ft 460 kts 319°
2026-05-08 10:22 -3.93050 104.90108 37815 ft 456 kts 320°
2026-05-08 10:22 -3.89202 104.86506 37815 ft 456 kts 320°
2026-05-08 10:23 -3.84559 104.82166 37815 ft 456 kts 320°
2026-05-08 10:23 -3.79918 104.77826 37815 ft 456 kts 320°
2026-05-08 10:24 -3.75278 104.73487 37815 ft 456 kts 320°
2026-05-08 10:24 -3.70636 104.69146 37815 ft 456 kts 320°
2026-05-08 10:25 -3.65994 104.64808 37808 ft 457 kts 320°
2026-05-08 10:25 -3.61354 104.60470 37809 ft 457 kts 320°
2026-05-08 10:26 -3.56708 104.56127 37808 ft 457 kts 320°
2026-05-08 10:26 -3.52092 104.51813 37810 ft 457 kts 320°
2026-05-08 10:27 -3.47439 104.47465 37815 ft 458 kts 320°
2026-05-08 10:27 -3.42782 104.43114 37816 ft 458 kts 320°
2026-05-08 10:28 -3.38117 104.38757 37819 ft 458 kts 320°
2026-05-08 10:28 -3.33452 104.34400 37814 ft 459 kts 320°
2026-05-08 10:29 -3.28785 104.30041 37818 ft 459 kts 320°
2026-05-08 10:29 -3.24117 104.25683 37819 ft 459 kts 320°
2026-05-08 10:30 -3.19450 104.21326 37823 ft 459 kts 320°
2026-05-08 10:30 -3.14808 104.16992 37817 ft 459 kts 320°
2026-05-08 10:31 -3.10137 104.12633 37816 ft 459 kts 320°
2026-05-08 10:31 -3.05467 104.08275 37813 ft 459 kts 320°
2026-05-08 10:32 -3.00801 104.03920 37812 ft 459 kts 320°
2026-05-08 10:32 -2.96137 103.99569 37811 ft 458 kts 320°
2026-05-08 10:33 -2.91465 103.95213 37797 ft 459 kts 319°
2026-05-08 10:33 -2.86793 103.90855 37798 ft 459 kts 319°
2026-05-08 10:34 -2.82117 103.86493 37803 ft 459 kts 319°
2026-05-08 10:34 -2.77434 103.82127 37802 ft 460 kts 319°
2026-05-08 10:35 -2.72745 103.77754 37803 ft 461 kts 319°
2026-05-08 10:35 -2.68056 103.73382 37809 ft 461 kts 319°
2026-05-08 10:36 -2.63360 103.69004 37816 ft 462 kts 319°
2026-05-08 10:36 -2.58657 103.64621 37821 ft 462 kts 319°
2026-05-08 10:37 -2.53955 103.60238 37831 ft 462 kts 319°
2026-05-08 10:37 -2.49246 103.55849 37832 ft 463 kts 319°
2026-05-08 10:38 -2.44533 103.51457 37830 ft 462 kts 319°
2026-05-08 10:38 -2.39863 103.47104 37821 ft 457 kts 319°
2026-05-08 10:39 -2.35228 103.42785 37822 ft 456 kts 320°
2026-05-08 10:39 -2.30578 103.38452 37823 ft 457 kts 319°
2026-05-08 10:40 -2.25937 103.34115 37825 ft 457 kts 319°
2026-05-08 10:40 -2.21284 103.29768 37825 ft 458 kts 319°
2026-05-08 10:41 -2.16608 103.25401 37826 ft 461 kts 319°
2026-05-08 10:41 -2.11933 103.21033 37826 ft 459 kts 319°
2026-05-08 10:42 -2.07264 103.16672 37829 ft 459 kts 319°
2026-05-08 10:42 -2.02598 103.12315 37828 ft 459 kts 319°
2026-05-08 10:43 -1.97952 103.07978 37833 ft 459 kts 319°
2026-05-08 10:43 -1.93284 103.03618 37836 ft 459 kts 319°
2026-05-08 10:44 -1.88614 102.99259 37833 ft 459 kts 319°
2026-05-08 10:44 -1.83947 102.94903 37820 ft 459 kts 319°
2026-05-08 10:45 -1.79274 102.90542 37819 ft 459 kts 319°
2026-05-08 10:45 -1.74594 102.86173 37827 ft 460 kts 319°
2026-05-08 10:46 -1.69913 102.81804 37830 ft 461 kts 319°
2026-05-08 10:46 -1.65224 102.77428 37836 ft 461 kts 319°
2026-05-08 10:47 -1.60527 102.73044 37842 ft 462 kts 319°
2026-05-08 10:47 -1.55824 102.68656 37845 ft 463 kts 319°
2026-05-08 10:48 -1.51117 102.64261 37847 ft 463 kts 319°
2026-05-08 10:48 -1.46399 102.59855 37848 ft 464 kts 319°
2026-05-08 10:49 -1.41707 102.55472 37850 ft 465 kts 318°
2026-05-08 10:49 -1.36979 102.51055 37856 ft 465 kts 318°
2026-05-08 10:50 -1.32249 102.46637 37861 ft 466 kts 319°
2026-05-08 10:50 -1.27513 102.42215 37862 ft 466 kts 319°
2026-05-08 10:51 -1.22769 102.37782 37851 ft 465 kts 319°
2026-05-08 10:51 -1.18054 102.33379 37852 ft 463 kts 319°
2026-05-08 10:52 -1.13340 102.28979 37851 ft 464 kts 319°
2026-05-08 10:52 -1.08618 102.24572 37852 ft 463 kts 319°
2026-05-08 10:53 -1.03938 102.20202 37850 ft 463 kts 319°
2026-05-08 10:53 -0.99227 102.15804 37850 ft 464 kts 319°
2026-05-08 10:54 -0.94510 102.11399 37852 ft 464 kts 319°
2026-05-08 10:54 -0.89793 102.06997 37855 ft 464 kts 319°
2026-05-08 10:55 -0.85069 102.02586 37853 ft 465 kts 319°
2026-05-08 10:55 -0.80345 101.98177 37856 ft 465 kts 319°
2026-05-08 10:56 -0.75621 101.93768 37854 ft 465 kts 319°
2026-05-08 10:56 -0.70895 101.89359 37842 ft 465 kts 318°
2026-05-08 10:57 -0.66174 101.84951 37844 ft 465 kts 318°
2026-05-08 10:57 -0.59089 101.78338 37838 ft 464 kts 319°
2026-05-08 10:58 -0.54367 101.73931 37836 ft 464 kts 318°
2026-05-08 10:58 -0.49653 101.69531 37835 ft 464 kts 318°
2026-05-08 10:59 -0.44937 101.65130 37841 ft 463 kts 319°
2026-05-08 10:59 -0.40230 101.60736 37834 ft 463 kts 319°
2026-05-08 11:00 -0.35520 101.56343 37829 ft 463 kts 318°
2026-05-08 11:00 -0.30815 101.51952 37826 ft 463 kts 318°
2026-05-08 11:01 -0.26104 101.47555 37820 ft 463 kts 318°
2026-05-08 11:01 -0.21399 101.43164 37821 ft 463 kts 318°
2026-05-08 11:02 -0.14339 101.36576 37816 ft 463 kts 318°
2026-05-08 11:03 -0.09656 101.32206 37818 ft 463 kts 318°
2026-05-08 11:03 -0.04938 101.27801 37802 ft 464 kts 319°
2026-05-08 11:04 -0.00216 101.23395 37808 ft 465 kts 319°
2026-05-08 11:04 0.04519 101.18978 37813 ft 466 kts 319°
2026-05-08 11:05 0.08462 101.15299 37817 ft 467 kts 319°
2026-05-08 11:05 0.13208 101.10870 37823 ft 467 kts 319°
2026-05-08 11:06 0.17968 101.06428 37833 ft 468 kts 319°
2026-05-08 11:06 0.22731 101.01983 37835 ft 469 kts 319°
2026-05-08 11:07 0.27500 100.97534 37842 ft 469 kts 319°
2026-05-08 11:07 0.32264 100.93088 37828 ft 467 kts 319°
2026-05-08 11:08 0.37007 100.88661 37829 ft 467 kts 319°
2026-05-08 11:08 0.41757 100.84229 37841 ft 467 kts 319°
2026-05-08 11:09 0.46505 100.79797 37835 ft 467 kts 319°
2026-05-08 11:09 0.51224 100.75393 37834 ft 467 kts 319°
2026-05-08 11:10 0.55973 100.70961 37839 ft 466 kts 319°
2026-05-08 11:10 0.60715 100.66535 37832 ft 466 kts 319°
2026-05-08 11:11 0.65457 100.62109 37830 ft 466 kts 319°
2026-05-08 11:11 0.70193 100.57689 37831 ft 466 kts 319°
2026-05-08 11:12 0.74933 100.53266 37832 ft 466 kts 319°
2026-05-08 11:12 0.79669 100.48843 37854 ft 465 kts 319°
2026-05-08 11:13 0.84401 100.44427 37855 ft 465 kts 319°
2026-05-08 11:13 0.89130 100.40013 37857 ft 465 kts 319°
2026-05-08 11:14 0.93849 100.35607 37852 ft 464 kts 319°
2026-05-08 11:14 0.98567 100.31203 37849 ft 464 kts 319°
2026-05-08 11:15 1.03253 100.26828 37858 ft 463 kts 319°
2026-05-08 11:15 1.07962 100.22432 37851 ft 463 kts 319°
2026-05-08 11:16 1.12671 100.18036 37838 ft 463 kts 319°
2026-05-08 11:16 1.17381 100.13638 37842 ft 463 kts 319°
2026-05-08 11:17 1.22097 100.09234 37844 ft 463 kts 319°
2026-05-08 11:17 1.26814 100.04830 37845 ft 464 kts 319°
2026-05-08 11:18 1.31531 100.00425 37849 ft 464 kts 319°
2026-05-08 11:18 1.36250 99.96017 37856 ft 465 kts 319°
2026-05-08 11:19 1.40975 99.91604 37861 ft 465 kts 319°
2026-05-08 11:19 1.45703 99.87189 37861 ft 465 kts 319°
2026-05-08 11:20 1.50433 99.82771 37875 ft 466 kts 319°
2026-05-08 11:20 1.55170 99.78346 37865 ft 466 kts 319°
2026-05-08 11:21 1.59912 99.73917 37866 ft 467 kts 319°
2026-05-08 11:21 1.64629 99.69509 37870 ft 467 kts 319°
2026-05-08 11:22 1.69381 99.65073 37895 ft 467 kts 319°
2026-05-08 11:22 1.74139 99.60643 37897 ft 467 kts 320°
2026-05-08 11:23 1.79296 99.56735 37879 ft 464 kts 330°
2026-05-08 11:23 1.82092 99.55131 37628 ft 463 kts 335°
2026-05-08 11:23 1.84964 99.53662 37006 ft 465 kts 335°
2026-05-08 11:23 1.87861 99.52175 36118 ft 471 kts 335°
2026-05-08 11:24 1.90796 99.50666 35262 ft 475 kts 334°
2026-05-08 11:24 1.93740 99.49148 34483 ft 477 kts 334°
2026-05-08 11:24 1.96692 99.47625 33644 ft 479 kts 334°
2026-05-08 11:24 1.99655 99.46096 32865 ft 478 kts 334°
2026-05-08 11:25 2.02614 99.44569 32024 ft 479 kts 334°
2026-05-08 11:25 2.05581 99.43038 31197 ft 480 kts 334°
2026-05-08 11:25 2.08553 99.41505 30360 ft 481 kts 334°
2026-05-08 11:25 2.11530 99.39969 29648 ft 478 kts 334°
2026-05-08 11:26 2.14458 99.38457 29125 ft 470 kts 334°
2026-05-08 11:26 2.17350 99.36964 28527 ft 463 kts 334°
2026-05-08 11:26 2.20201 99.35493 27936 ft 458 kts 334°
2026-05-08 11:26 2.23013 99.34043 27351 ft 452 kts 334°
2026-05-08 11:27 2.25792 99.32609 26770 ft 448 kts 334°
2026-05-08 11:27 2.28548 99.31186 26160 ft 443 kts 334°
2026-05-08 11:27 2.31247 99.29793 25611 ft 439 kts 334°
2026-05-08 11:27 2.33956 99.28395 25031 ft 436 kts 334°
2026-05-08 11:28 2.36653 99.27003 24466 ft 433 kts 334°
2026-05-08 11:28 2.39323 99.25626 23882 ft 430 kts 334°
2026-05-08 11:28 2.41995 99.24294 23256 ft 427 kts 338°
2026-05-08 11:28 2.44754 99.23273 22734 ft 419 kts 345°
2026-05-08 11:29 2.47567 99.22601 22259 ft 415 kts 351°
2026-05-08 11:29 2.50400 99.22056 21773 ft 415 kts 351°
2026-05-08 11:29 2.53233 99.21499 21293 ft 413 kts 351°
2026-05-08 11:29 2.56033 99.20946 20815 ft 406 kts 351°
2026-05-08 11:30 2.58768 99.20406 20325 ft 404 kts 351°
2026-05-08 11:30 2.61530 99.19862 19852 ft 402 kts 350°
2026-05-08 11:30 2.64265 99.19323 19364 ft 399 kts 350°
2026-05-08 11:30 2.66977 99.18789 18899 ft 397 kts 350°
2026-05-08 11:31 2.69682 99.18257 18430 ft 395 kts 350°
2026-05-08 11:31 2.72361 99.17730 17943 ft 390 kts 350°
2026-05-08 11:31 2.75018 99.17207 17487 ft 388 kts 350°
2026-05-08 11:31 2.77662 99.16687 17129 ft 385 kts 350°
2026-05-08 11:32 2.80285 99.16171 16778 ft 384 kts 350°
2026-05-08 11:32 2.82905 99.15656 16332 ft 383 kts 350°
2026-05-08 11:32 2.85503 99.15145 15885 ft 377 kts 350°
2026-05-08 11:32 2.88073 99.14639 15423 ft 376 kts 350°
2026-05-08 11:33 2.90631 99.14136 14985 ft 373 kts 350°
2026-05-08 11:33 2.93166 99.13637 14551 ft 370 kts 350°
2026-05-08 11:33 2.95678 99.13100 14135 ft 368 kts 344°
2026-05-08 11:33 2.97982 99.12094 13988 ft 356 kts 330°
2026-05-08 11:34 2.99914 99.10620 13863 ft 343 kts 316°
2026-05-08 11:34 3.01567 99.08966 13739 ft 330 kts 316°
2026-05-08 11:34 3.03179 99.07361 13340 ft 326 kts 316°
2026-05-08 11:34 3.04784 99.05767 12912 ft 324 kts 316°
2026-05-08 11:35 3.06376 99.04187 12493 ft 321 kts 316°
2026-05-08 11:35 3.07957 99.02616 12086 ft 319 kts 315°
2026-05-08 11:35 3.09526 99.01055 11680 ft 317 kts 315°
2026-05-08 11:35 3.11084 98.99505 11273 ft 315 kts 315°
2026-05-08 11:36 3.12632 98.97965 10871 ft 313 kts 315°
2026-05-08 11:36 3.14168 98.96435 10484 ft 311 kts 315°
2026-05-08 11:36 3.15696 98.94914 10103 ft 309 kts 315°
2026-05-08 11:36 3.17193 98.93423 9710 ft 307 kts 315°
2026-05-08 11:37 3.18700 98.91924 9290 ft 304 kts 315°
2026-05-08 11:37 3.20195 98.90434 8884 ft 302 kts 315°
2026-05-08 11:37 3.21679 98.88957 8478 ft 300 kts 315°
2026-05-08 11:37 3.23154 98.87489 8070 ft 298 kts 315°
2026-05-08 11:38 3.24617 98.86033 7674 ft 294 kts 315°
2026-05-08 11:38 3.26063 98.84593 7174 ft 291 kts 315°
2026-05-08 11:38 3.27490 98.83172 6686 ft 288 kts 315°
2026-05-08 11:38 3.28891 98.81777 6345 ft 280 kts 315°
2026-05-08 11:39 3.30265 98.80410 6008 ft 279 kts 314°
2026-05-08 11:39 3.31651 98.79034 5689 ft 280 kts 315°
2026-05-08 11:39 3.33045 98.77691 5341 ft 276 kts 316°
2026-05-08 11:39 3.34432 98.76377 5019 ft 273 kts 316°
2026-05-08 11:40 3.35814 98.75070 4698 ft 273 kts 316°
2026-05-08 11:40 3.37181 98.73773 4379 ft 269 kts 316°
2026-05-08 11:40 3.38539 98.72482 4061 ft 270 kts 316°
2026-05-08 11:40 3.39899 98.71184 3750 ft 269 kts 316°
2026-05-08 11:41 3.41230 98.69913 3631 ft 258 kts 316°
2026-05-08 11:41 3.42643 98.68876 3528 ft 248 kts 338°
2026-05-08 11:41 3.44292 98.68702 3433 ft 236 kts 12°
2026-05-08 11:41 3.45765 98.69316 3361 ft 225 kts 33°
2026-05-08 11:42 3.46969 98.70260 3254 ft 215 kts 43°
2026-05-08 11:42 3.48018 98.71272 3176 ft 203 kts 45°
2026-05-08 11:42 3.48968 98.72227 3133 ft 185 kts 45°
2026-05-08 11:42 3.49835 98.73094 3032 ft 166 kts 45°
2026-05-08 11:43 3.50601 98.73860 3011 ft 149 kts 45°
2026-05-08 11:43 3.51321 98.74581 2947 ft 141 kts 44°
2026-05-08 11:43 3.52002 98.75262 2784 ft 138 kts 45°
2026-05-08 11:43 3.52681 98.75943 2617 ft 138 kts 45°
2026-05-08 11:44 3.53358 98.76620 2448 ft 137 kts 45°
2026-05-08 11:44 3.54019 98.77278 2309 ft 135 kts 45°
2026-05-08 11:44 3.54692 98.77947 2141 ft 136 kts 45°
2026-05-08 11:44 3.55360 98.78612 1960 ft 135 kts 45°
2026-05-08 11:45 3.56033 98.79267 1707 ft 134 kts 46°
2026-05-08 11:45 3.56659 98.79939 1516 ft 133 kts 50°
2026-05-08 11:45 3.57296 98.80621 1333 ft 132 kts 44°
2026-05-08 11:45 3.57994 98.81221 1216 ft 134 kts 40°
2026-05-08 11:46 3.58674 98.81847 1048 ft 132 kts 46°
2026-05-08 11:46 3.59277 98.82547 882 ft 132 kts 48°
2026-05-08 11:46 3.59908 98.83209 750 ft 133 kts 43°
2026-05-08 11:46 3.60595 98.83836 604 ft 134 kts 43°
2026-05-08 11:47 3.61234 98.84501 466 ft 132 kts 48°
2026-05-08 11:47 3.61652 98.84953 366 ft 134 kts 43°
2026-05-08 11:47 3.62324 98.85592 189 ft 131 kts 44°
2026-05-08 11:47 3.62971 98.86242 43 ft 129 kts 43°
2026-05-08 11:48 3.63535 98.86805 28 ft 90 kts 45°
2026-05-08 11:48 3.63841 98.87110 29 ft 41 kts 44°
2026-05-08 11:48 3.64029 98.87311 27 ft 37 kts 53°
2026-05-08 11:48 3.64106 98.87484 29 ft 12 kts 77°
2026-05-08 11:49 3.64129 98.87576 28 ft 15 kts 73°
2026-05-08 11:49 3.64173 98.87683 29 ft 18 kts 60°
2026-05-08 11:49 3.64260 98.87782 27 ft 20 kts 38°
2026-05-08 11:49 3.64347 98.87842 27 ft 0 kts 60°
2026-05-08 11:50 3.64356 98.87862 27 ft 7 kts 67°
2026-05-08 11:50 3.64392 98.87915 27 ft 11 kts 46°
2026-05-08 11:50 3.64422 98.87985 27 ft 12 kts 107°
2026-05-08 11:50 3.64386 98.88018 27 ft 7 kts 134°
2026-05-08 11:51 3.64340 98.88067 27 ft 12 kts 133°
2026-05-08 11:51 3.64273 98.88136 27 ft 16 kts 134°
2026-05-08 11:51 3.64184 98.88207 27 ft 16 kts 182°
2026-05-08 11:51 3.64097 98.88134 27 ft 18 kts 223°
2026-05-08 11:52 3.64001 98.88040 27 ft 20 kts 223°
2026-05-08 11:52 3.63912 98.87957 27 ft 14 kts 205°
2026-05-08 11:52 3.63861 98.87983 27 ft 6 kts 136°
2026-05-08 11:52 3.63821 98.88023 27 ft 10 kts 134°
2026-05-08 11:53 3.63766 98.88056 27 ft 8 kts 211°
2026-05-08 11:53 3.63731 98.88014 27 ft 5 kts 221°
2026-05-08 11:53 3.63719 98.88002 27 ft 0 kts 222°
2026-05-08 11:53 3.63718 98.88002 27 ft 0 kts 222°